Location: Godiavel Galaoual
(15.2485°N, 12.6604°W)
Time: 10:59:08
(UTC+00:00)

Vanguard 1 - All Passes

Search period start: 13 June 2021 00:00
Search period end: 23 June 2021 00:00
Orbit: 650 x 3832 km, 34.2° (Epoch: 12 June)

Date Brightness Start Highest point End Pass type
(mag) Time Alt. Az. Time Alt. Az. Time Alt. Az.
13 Jun - 00:00:53 10° W 00:21:15 49° NNW 00:33:31 10° NE visible
13 Jun - 02:35:42 10° WNW 02:47:06 27° N 02:54:15 10° NE visible
13 Jun - 05:03:58 10° NW 05:11:20 31° NNE 05:16:08 10° ENE visible
13 Jun - 07:26:56 10° WNW 07:32:13 49° SW 07:36:28 10° SE daylight
13 Jun - 17:12:13 10° SSE 17:21:41 14° SE 17:32:00 10° ESE daylight
13 Jun - 19:28:00 10° SSW 19:49:06 49° SE 20:08:57 10° ENE visible
13 Jun - 21:52:19 10° WSW 22:16:22 82° NW 22:33:19 10° NE visible
14 Jun - 00:24:08 10° W 00:43:05 42° NNW 00:54:33 10° NE visible
14 Jun - 02:58:28 10° NW 03:09:04 26° N 03:15:44 10° NE visible
14 Jun - 05:25:09 10° NW 05:32:45 42° NNE 05:37:36 10° E visible
14 Jun - 07:48:39 10° W 07:52:56 26° SW 07:56:39 10° SSE daylight
14 Jun - 17:30:00 10° S 17:43:40 21° SE 17:58:54 10° E daylight
14 Jun - 19:48:30 10° SW 20:10:40 60° SE 20:30:57 10° ENE visible
14 Jun - 22:14:19 10° WSW 22:38:02 70° NNW 22:54:24 10° NE visible
15 Jun - 00:47:35 10° W 01:05:03 37° NNW 01:15:40 10° NE visible
15 Jun - 03:20:47 10° NW 03:31:01 28° N 03:37:21 10° ENE visible
15 Jun - 05:46:20 10° NW 05:53:59 63° NNE 05:58:49 10° ESE visible
15 Jun - 08:11:18 10° WSW 08:13:39 13° SW 08:15:52 10° S daylight
15 Jun - 17:49:05 10° S 18:05:19 29° SE 18:23:32 10° E daylight
15 Jun - 20:09:20 10° SW 20:32:13 73° SE 20:52:36 10° ENE visible
15 Jun - 22:36:43 10° WSW 22:59:50 60° NNW 23:15:28 10° NE visible
16 Jun - 01:11:04 10° WNW 01:27:09 34° NNW 01:36:58 10° NE visible
16 Jun - 03:42:41 10° NW 03:52:51 32° N 03:58:59 10° ENE visible
16 Jun - 06:07:36 10° WNW 06:14:59 82° SW 06:19:44 10° SE daylight
16 Jun - 18:08:47 10° SSW 18:26:48 39° SE 18:46:58 10° ENE daylight
16 Jun - 20:30:29 10° SW 20:53:50 86° SE 21:14:01 10° ENE visible
16 Jun - 22:59:31 10° W 23:21:45 51° NNW 23:36:35 10° NE visible
17 Jun - 01:34:21 10° WNW 01:49:20 32° N 01:58:25 10° NE visible
17 Jun - 04:04:18 10° NW 04:14:33 39° NNE 04:20:31 10° E visible
17 Jun - 06:29:07 10° WNW 06:35:46 47° SW 06:40:18 10° SE daylight
17 Jun - 16:14:47 10° SSE 16:22:10 13° SE 16:30:29 10° ESE daylight
17 Jun - 18:28:53 10° SSW 18:48:11 49° SE 19:09:37 10° ENE daylight
17 Jun - 20:51:59 10° WSW 21:15:32 81° NNW 21:35:19 10° NE visible
17 Jun - 23:22:39 10° W 23:43:52 45° NNW 23:57:47 10° NE visible
18 Jun - 01:57:17 10° WNW 02:11:30 32° N 02:20:01 10° ENE visible
18 Jun - 04:25:45 10° NW 04:36:03 52° NNE 04:41:53 10° E visible
18 Jun - 06:51:02 10° W 06:56:23 27° SW 07:00:23 10° SSE daylight
18 Jun - 16:32:00 10° S 16:43:47 20° SE 16:58:03 10° E daylight
18 Jun - 18:49:18 10° SW 19:09:34 61° SE 19:31:45 10° ENE daylight
18 Jun - 21:13:51 10° WSW 21:37:22 70° NNW 21:56:33 10° NE visible
18 Jun - 23:46:01 10° W 00:06:08 40° NNW 00:19:07 10° NE visible
19 Jun - 02:19:48 10° NW 02:33:36 35° N 02:41:40 10° ENE visible
19 Jun - 04:47:10 10° NW 04:57:19 73° NNE 05:03:00 10° ESE visible
19 Jun - 07:13:52 10° WSW 07:16:56 14° SW 07:19:34 10° SSW daylight
19 Jun - 16:50:55 10° S 17:05:08 28° SE 17:22:59 10° E daylight
19 Jun - 19:10:02 10° SW 19:31:02 74° SE 19:53:33 10° ENE visible
19 Jun - 21:36:06 10° WSW 21:59:23 60° NNW 22:17:47 10° NE visible
20 Jun - 00:09:25 10° WNW 00:28:31 38° N 00:40:35 10° NE visible
20 Jun - 02:41:56 10° NW 02:55:35 39° NNE 03:03:17 10° E visible
20 Jun - 05:08:40 10° WNW 05:18:20 77° SW 05:23:49 10° SE visible
20 Jun - 17:10:30 10° SSW 17:26:19 38° SE 17:46:36 10° ENE daylight
20 Jun - 19:31:06 10° SW 19:52:36 87° SE 20:15:07 10° ENE visible
20 Jun - 21:58:42 10° W 22:21:35 53° NNW 22:39:05 10° NE visible
21 Jun - 00:32:41 10° WNW 00:50:56 37° N 01:02:14 10° ENE visible
21 Jun - 03:03:47 10° NW 03:17:22 48° NNE 03:24:48 10° E visible
21 Jun - 05:30:23 10° WNW 05:39:05 49° SW 05:44:20 10° SSE visible
21 Jun - 15:18:53 10° SSE 15:23:02 11° SE 15:27:37 10° ESE daylight
21 Jun - 17:30:32 10° SSW 17:47:27 49° SE 18:09:26 10° ENE daylight
21 Jun - 19:52:29 10° WSW 20:14:21 80° NNW 20:36:33 10° NE visible
21 Jun - 22:21:39 10° W 22:43:58 47° NNW 23:00:29 10° NE visible
22 Jun - 00:55:40 10° WNW 01:13:20 38° N 01:23:57 10° ENE visible
22 Jun - 03:25:28 10° NW 03:38:57 61° NNE 03:46:05 10° ESE visible
22 Jun - 05:52:29 10° WNW 05:59:38 29° SW 06:04:23 10° SSE visible
22 Jun - 15:34:47 10° S 15:44:20 18° SE 15:56:29 10° E daylight
22 Jun - 17:50:54 10° SW 18:08:38 61° SE 18:31:43 10° ENE daylight
22 Jun - 20:14:12 10° WSW 20:36:18 70° NNW 20:57:57 10° NE visible
22 Jun - 22:44:48 10° W 23:06:31 43° NNW 23:22:03 10° NE visible
